Precipitable_Water
0.29 0.23 0.24 0.25 0.28 0.29 0.32 0.34 0.38 0.44 0.48 0.50 0.50 0.49 0.46 0.43 0.42 0.50 0.57 0.72 0.74 0.66 0.62 0.66 0.69 0.77 0.81 0.89 1.01 1.00 0.98 0.92 0.89 0.88 0.90 0.93 0.92 0.92 0.91 0.91 0.89 0.88 0.87 0.94 0.96 0.96 1.02 1.04 1.12 1.19 1.22 1.25 1.31 1.34 1.37 1.37 1.35 1.36 1.37 1.40 1.36 1.44 1.48 1.59 1.65 1.51 1.40 1.28 1.28 1.37 1.43 1.31 1.40 1.47 1.41 1.45 1.58 1.47 1.44 1.59 1.62 1.59 1.53 1.51 1.60 1.73
0.25 0.21 0.23 0.28 0.29 0.30 0.31 0.35 0.38 0.41 0.48 0.48 0.51 0.48 0.47 0.46 0.45 0.49 0.62 0.79 0.78 0.63 0.63 0.69 0.71 0.73 0.80 0.88 0.97 1.04 0.96 0.87 0.87 0.86 0.89 0.93 0.95 0.94 0.92 0.90 0.92 0.93 0.99 1.02 0.98 0.99 1.01 1.03 1.08 1.17 1.18 1.17 1.16 1.27 1.35 1.35 1.37 1.38 1.41 1.42 1.42 1.44 1.44 1.49 1.48 1.50 1.41 1.40 1.38 1.35 1.45 1.40 1.45 1.49 1.36 1.41 1.42 1.46 1.61 1.72 1.60 1.62 1.62 1.70 1.72 1.79
0.19 0.18 0.21 0.27 0.30 0.33 0.33 0.34 0.36 0.37 0.40 0.45 0.47 0.45 0.45 0.44 0.52 0.62 0.69 0.79 0.83 0.70 0.64 0.74 0.68 0.71 0.78 0.82 0.90 0.97 0.95 0.93 0.92 0.91 0.88 0.89 0.92 0.96 0.96 0.92 0.92 0.97 1.01 1.03 1.01 1.02 1.02 1.05 1.07 1.12 1.16 1.17 1.17 1.22 1.27 1.36 1.39 1.38 1.40 1.43 1.41 1.41 1.42 1.46 1.47 1.52 1.45 1.49 1.48 1.42 1.48 1.47 1.49 1.51 1.53 1.59 1.65 1.64 1.53 1.57 1.67 1.80 1.77 1.75 1.75 1.65
0.15 0.17 0.22 0.27 0.29 0.29 0.29 0.29 0.32 0.37 0.39 0.40 0.41 0.42 0.39 0.47 0.48 0.52 0.67 0.74 0.80 0.69 0.65 0.69 0.67 0.72 0.76 0.79 0.82 0.93 0.95 0.96 0.98 0.97 0.99 0.99 0.93 0.91 0.94 0.94 0.92 0.96 1.00 1.00 1.00 0.99 1.03 1.06 1.09 1.11 1.11 1.14 1.17 1.19 1.22 1.29 1.34 1.41 1.40 1.44 1.36 1.35 1.39 1.38 1.47 1.46 1.55 1.64 1.60 1.46 1.60 1.63 1.62 1.54 1.55 1.69 1.74 1.58 1.70 1.73 1.74 1.82 1.46 1.39 1.45 1.53
0.14 0.16 0.20 0.24 0.27 0.28 0.29 0.30 0.31 0.33 0.34 0.38 0.40 0.39 0.41 0.46 0.54 0.59 0.63 0.72 0.81 0.79 0.76 0.72 0.66 0.65 0.70 0.70 0.76 0.86 0.94 0.93 0.98 0.99 1.02 1.07 1.08 1.06 1.02 1.02 1.01 0.99 1.02 1.02 1.01 0.99 0.97 0.99 1.03 1.06 1.10 1.16 1.14 1.16 1.20 1.26 1.31 1.38 1.40 1.44 1.45 1.45 1.43 1.41 1.56 1.44 1.46 1.71 1.55 1.48 1.64 1.58 1.69 1.64 1.59 1.56 1.51 1.45 1.60 1.70 1.71 1.65 1.48 1.47 1.48 1.64
0.15 0.19 0.22 0.20 0.24 0.28 0.29 0.29 0.32 0.32 0.31 0.35 0.39 0.40 0.41 0.48 0.49 0.57 0.61 0.64 0.63 0.61 0.69 0.66 0.52 0.52 0.60 0.62 0.67 0.81 0.82 0.84 0.92 0.95 0.97 1.02 1.06 1.08 1.02 1.00 1.04 1.09 1.15 1.08 1.02 0.97 0.93 0.94 1.01 1.09 1.12 1.12 1.12 1.15 1.21 1.28 1.38 1.39 1.45 1.52 1.48 1.46 1.44 1.44 1.48 1.45 1.51 1.49 1.39 1.42 1.40 1.33 1.27 1.25 1.27 1.23 1.18 1.19 1.29 1.29 1.24 1.65 1.67 1.49 1.46 1.46
0.14 0.20 0.20 0.19 0.22 0.27 0.28 0.27 0.30 0.32 0.30 0.32 0.35 0.41 0.43 0.47 0.49 0.58 0.55 0.61 0.52 0.45 0.60 0.73 0.54 0.47 0.56 0.54 0.59 0.75 0.81 0.88 0.90 0.87 0.94 0.99 1.01 1.03 1.01 1.01 1.02 1.05 1.12 1.17 1.14 1.08 0.95 0.99 1.02 1.07 1.11 1.12 1.11 1.16 1.25 1.30 1.34 1.38 1.46 1.46 1.49 1.47 1.37 1.33 1.39 1.42 1.48 1.42 1.50 1.46 1.17 1.11 1.09 1.04 1.10 1.14 1.16 1.16 1.40 1.47 1.44 1.50 1.52 1.52 1.43 1.43
0.17 0.18 0.19 0.19 0.20 0.23 0.26 0.26 0.29 0.31 0.31 0.29 0.40 0.42 0.43 0.44 0.45 0.49 0.56 0.61 0.56 0.61 0.63 0.66 0.62 0.49 0.50 0.53 0.64 0.72 0.66 0.77 0.81 0.80 0.85 0.91 0.97 0.98 1.00 1.00 1.01 1.08 1.13 1.14 1.12 1.13 1.09 1.03 1.04 1.06 1.12 1.16 1.14 1.18 1.24 1.25 1.28 1.32 1.39 1.45 1.43 1.35 1.27 1.20 1.26 1.32 1.39 1.44 1.45 1.33 1.18 1.25 1.21 1.17 1.18 1.17 1.17 1.33 1.49 1.53 1.41 1.38 1.45 1.43 1.36 1.40
0.17 0.14 0.16 0.17 0.18 0.20 0.23 0.27 0.30 0.32 0.31 0.32 0.41 0.44 0.43 0.44 0.45 0.45 0.49 0.56 0.57 0.56 0.52 0.62 0.68 0.53 0.46 0.55 0.75 0.81 0.72 0.73 0.67 0.68 0.75 0.80 0.89 0.96 0.99 0.99 1.01 1.04 1.10 1.16 1.14 1.12 1.14 1.10 1.08 1.12 1.14 1.16 1.20 1.23 1.20 1.17 1.22 1.31 1.38 1.39 1.43 1.44 1.43 1.35 1.25 1.26 1.31 1.43 1.43 1.31 1.28 1.25 1.21 1.25 1.21 1.22 1.35 1.37 1.43 1.33 1.32 1.36 1.33 1.34 1.37 1.41
0.21 0.17 0.15 0.17 0.16 0.18 0.23 0.27 0.31 0.31 0.31 0.38 0.44 0.46 0.47 0.47 0.47 0.46 0.45 0.48 0.52 0.50 0.45 0.54 0.60 0.49 0.47 0.51 0.58 0.72 0.65 0.64 0.63 0.63 0.67 0.75 0.80 0.88 0.96 1.00 1.03 1.06 1.07 1.11 1.17 1.18 1.20 1.20 1.17 1.15 1.19 1.21 1.21 1.23 1.21 1.19 1.24 1.27 1.28 1.30 1.36 1.38 1.40 1.37 1.28 1.26 1.32 1.38 1.40 1.35 1.37 1.22 1.17 1.21 1.25 1.32 1.34 1.33 1.38 1.26 1.30 1.35 1.30 1.30 1.34 1.37
0.25 0.24 0.20 0.16 0.15 0.20 0.25 0.27 0.30 0.31 0.35 0.40 0.41 0.41 0.42 0.45 0.46 0.47 0.46 0.45 0.43 0.39 0.43 0.53 0.56 0.53 0.39 0.44 0.49 0.56 0.59 0.57 0.54 0.55 0.67 0.76 0.80 0.84 0.89 0.96 1.01 1.04 1.08 1.10 1.15 1.20 1.22 1.26 1.23 1.22 1.18 1.23 1.26 1.22 1.19 1.20 1.25 1.25 1.20 1.18 1.22 1.29 1.36 1.37 1.30 1.24 1.27 1.32 1.37 1.34 1.30 1.28 1.26 1.29 1.28 1.24 1.27 1.37 1.31 1.23 1.26 1.32 1.32 1.29 1.31 1.38
0.25 0.23 0.19 0.18 0.19 0.20 0.26 0.27 0.30 0.33 0.37 0.37 0.37 0.37 0.40 0.40 0.45 0.44 0.44 0.47 0.38 0.35 0.48 0.54 0.48 0.52 0.38 0.38 0.44 0.50 0.65 0.61 0.52 0.48 0.52 0.69 0.80 0.80 0.82 0.91 0.99 1.04 1.07 1.12 1.13 1.15 1.21 1.24 1.23 1.20 1.15 1.20 1.23 1.22 1.19 1.20 1.28 1.25 1.21 1.18 1.14 1.18 1.26 1.33 1.33 1.28 1.31 1.30 1.32 1.33 1.33 1.31 1.32 1.34 1.38 1.31 1.26 1.29 1.31 1.33 1.32 1.38 1.37 1.33 1.34 1.39
0.22 0.22 0.20 0.18 0.20 0.18 0.20 0.25 0.29 0.33 0.38 0.35 0.35 0.37 0.34 0.35 0.37 0.33 0.37 0.33 0.33 0.33 0.43 0.45 0.46 0.41 0.42 0.45 0.47 0.47 0.55 0.60 0.58 0.54 0.54 0.57 0.78 0.84 0.82 0.82 0.93 1.02 1.09 1.12 1.10 1.13 1.16 1.18 1.18 1.15 1.13 1.16 1.20 1.22 1.22 1.22 1.25 1.24 1.23 1.22 1.19 1.20 1.29 1.34 1.40 1.35 1.34 1.31 1.27 1.30 1.34 1.37 1.39 1.38 1.46 1.42 1.35 1.35 1.35 1.35 1.32 1.35 1.34 1.39 1.36 1.35
0.19 0.26 0.23 0.20 0.22 0.20 0.19 0.19 0.24 0.27 0.31 0.32 0.31 0.33 0.32 0.30 0.31 0.28 0.32 0.36 0.36 0.38 0.41 0.42 0.48 0.38 0.44 0.49 0.53 0.47 0.51 0.58 0.59 0.57 0.57 0.59 0.60 0.77 0.94 0.88 0.93 1.01 1.07 1.09 1.10 1.08 1.09 1.14 1.19 1.19 1.14 1.13 1.15 1.19 1.22 1.23 1.22 1.24 1.23 1.24 1.20 1.22 1.32 1.39 1.42 1.40 1.36 1.32 1.29 1.32 1.41 1.44 1.45 1.43 1.45 1.46 1.40 1.36 1.40 1.40 1.36 1.37 1.38 1.39 1.37 1.36
0.16 0.17 0.20 0.20 0.17 0.21 0.17 0.19 0.23 0.26 0.29 0.30 0.33 0.33 0.32 0.32 0.30 0.27 0.29 0.29 0.29 0.31 0.36 0.42 0.40 0.36 0.34 0.35 0.48 0.49 0.52 0.52 0.55 0.58 0.60 0.62 0.70 0.72 0.94 0.99 0.93 0.97 1.03 1.08 1.09 1.05 1.00 1.07 1.15 1.16 1.14 1.13 1.14 1.12 1.16 1.18 1.18 1.22 1.24 1.24 1.22 1.22 1.29 1.36 1.43 1.44 1.38 1.34 1.31 1.35 1.43 1.47 1.50 1.47 1.44 1.43 1.46 1.45 1.46 1.47 1.45 1.45 1.46 1.41 1.40 1.39
0.19 0.18 0.21 0.21 0.21 0.23 0.17 0.19 0.22 0.27 0.31 0.34 0.35 0.35 0.33 0.31 0.39 0.29 0.32 0.32 0.32 0.32 0.32 0.37 0.38 0.40 0.36 0.43 0.60 0.58 0.54 0.54 0.54 0.55 0.57 0.62 0.69 0.70 0.72 0.88 0.91 0.92 0.97 1.03 1.05 1.04 0.97 1.02 1.08 1.11 1.11 1.11 1.12 1.13 1.15 1.17 1.18 1.17 1.23 1.28 1.25 1.24 1.26 1.32 1.39 1.40 1.36 1.35 1.38 1.41 1.41 1.46 1.51 1.51 1.48 1.45 1.51 1.53 1.54 1.55 1.48 1.45 1.48 1.45 1.45 1.47
0.23 0.18 0.22 0.24 0.21 0.21 0.20 0.19 0.20 0.26 0.24 0.31 0.33 0.30 0.30 0.38 0.38 0.35 0.37 0.41 0.38 0.34 0.28 0.38 0.43 0.39 0.39 0.41 0.50 0.51 0.52 0.53 0.56 0.54 0.55 0.55 0.61 0.67 0.66 0.75 0.83 0.87 0.91 0.98 1.00 0.99 0.99 0.98 1.02 1.03 1.06 1.07 1.08 1.11 1.13 1.18 1.22 1.19 1.22 1.25 1.24 1.22 1.22 1.25 1.32 1.37 1.38 1.41 1.39 1.38 1.41 1.49 1.51 1.49 1.47 1.44 1.46 1.48 1.52 1.54 1.49 1.41 1.48 1.56 1.54 1.45
0.20 0.20 0.23 0.22 0.18 0.19 0.23 0.22 0.20 0.24 0.29 0.34 0.29 0.30 0.38 0.42 0.40 0.36 0.30 0.32 0.32 0.28 0.29 0.34 0.39 0.40 0.34 0.28 0.38 0.40 0.40 0.42 0.45 0.49 0.49 0.51 0.62 0.61 0.60 0.66 0.74 0.81 0.88 0.96 1.02 1.05 1.03 0.97 0.97 0.99 1.03 1.07 1.07 1.10 1.14 1.18 1.28 1.29 1.26 1.26 1.22 1.20 1.16 1.18 1.23 1.29 1.34 1.37 1.37 1.38 1.42 1.48 1.51 1.51 1.52 1.48 1.49 1.53 1.50 1.51 1.48 1.42 1.45 1.52 1.55 1.50
0.25 0.18 0.21 0.22 0.20 0.19 0.24 0.23 0.19 0.23 0.27 0.31 0.33 0.40 0.33 0.29 0.29 0.36 0.33 0.27 0.27 0.24 0.26 0.30 0.34 0.39 0.36 0.32 0.36 0.36 0.38 0.40 0.43 0.44 0.45 0.47 0.56 0.56 0.59 0.65 0.69 0.76 0.86 0.91 0.95 1.03 1.05 1.00 0.97 0.97 0.99 1.05 1.09 1.11 1.16 1.23 1.30 1.32 1.29 1.27 1.22 1.19 1.19 1.19 1.21 1.27 1.33 1.34 1.33 1.37 1.42 1.46 1.51 1.53 1.58 1.59 1.58 1.60 1.57 1.55 1.54 1.46 1.50 1.60 1.55 1.44
0.30 0.17 0.18 0.23 0.21 0.21 0.20 0.18 0.15 0.17 0.24 0.28 0.36 0.37 0.41 0.37 0.34 0.33 0.33 0.32 0.33 0.28 0.26 0.24 0.31 0.31 0.38 0.37 0.40 0.40 0.40 0.42 0.41 0.42 0.43 0.46 0.56 0.57 0.57 0.62 0.66 0.74 0.79 0.86 0.93 1.00 1.04 1.04 1.00 0.98 0.98 1.03 1.06 1.10 1.15 1.23 1.28 1.27 1.30 1.29 1.24 1.24 1.25 1.21 1.22 1.29 1.27 1.31 1.35 1.38 1.44 1.50 1.54 1.58 1.59 1.58 1.60 1.61 1.60 1.54 1.50 1.48 1.56 1.61 1.58 1.48
0.29 0.27 0.18 0.23 0.25 0.21 0.15 0.16 0.13 0.17 0.17 0.21 0.26 0.29 0.34 0.34 0.40 0.41 0.39 0.34 0.29 0.27 0.27 0.26 0.25 0.29 0.37 0.43 0.38 0.41 0.43 0.45 0.46 0.44 0.44 0.47 0.51 0.54 0.59 0.57 0.64 0.72 0.78 0.85 0.90 0.94 1.00 1.02 1.03 1.02 1.04 1.05 1.11 1.17 1.18 1.24 1.27 1.27 1.31 1.31 1.28 1.23 1.24 1.21 1.22 1.25 1.25 1.30 1.34 1.37 1.40 1.43 1.52 1.55 1.61 1.55 1.54 1.53 1.59 1.54 1.45 1.48 1.61 1.69 1.61 1.56
0.30 0.28 0.18 0.22 0.21 0.17 0.16 0.18 0.15 0.15 0.19 0.21 0.22 0.25 0.32 0.31 0.31 0.29 0.28 0.39 0.37 0.30 0.26 0.24 0.24 0.33 0.41 0.44 0.41 0.41 0.42 0.42 0.43 0.44 0.45 0.47 0.49 0.51 0.57 0.62 0.62 0.69 0.77 0.81 0.86 0.91 0.94 1.01 1.04 1.06 1.10 1.10 1.11 1.14 1.16 1.20 1.27 1.28 1.27 1.29 1.32 1.29 1.27 1.26 1.26 1.25 1.30 1.32 1.34 1.36 1.39 1.43 1.50 1.49 1.50 1.48 1.53 1.54 1.53 1.44 1.42 1.50 1.63 1.70 1.73 1.64
0.36 0.36 0.26 0.22 0.24 0.20 0.17 0.19 0.21 0.17 0.17 0.20 0.25 0.25 0.30 0.34 0.34 0.31 0.25 0.30 0.35 0.33 0.30 0.30 0.28 0.30 0.40 0.43 0.46 0.43 0.41 0.40 0.40 0.39 0.40 0.44 0.47 0.47 0.63 0.69 0.66 0.67 0.71 0.75 0.80 0.87 0.92 0.98 1.06 1.09 1.11 1.10 1.07 1.12 1.16 1.19 1.22 1.25 1.27 1.31 1.38 1.31 1.27 1.30 1.36 1.39 1.38 1.35 1.34 1.35 1.40 1.43 1.43 1.45 1.48 1.49 1.52 1.48 1.43 1.43 1.44 1.53 1.61 1.83 1.77 1.67
0.41 0.33 0.30 0.26 0.30 0.29 0.26 0.21 0.21 0.21 0.17 0.16 0.20 0.24 0.27 0.28 0.30 0.30 0.32 0.35 0.32 0.30 0.32 0.31 0.27 0.30 0.39 0.44 0.47 0.43 0.42 0.41 0.43 0.45 0.46 0.49 0.53 0.53 0.62 0.71 0.69 0.67 0.74 0.77 0.80 0.86 0.92 0.99 1.07 1.14 1.16 1.14 1.11 1.13 1.16 1.20 1.22 1.26 1.31 1.34 1.38 1.38 1.36 1.37 1.42 1.51 1.47 1.40 1.36 1.39 1.43 1.47 1.49 1.48 1.48 1.44 1.47 1.48 1.46 1.44 1.47 1.52 1.62 1.77 1.78 1.70
0.32 0.35 0.31 0.27 0.25 0.28 0.28 0.27 0.22 0.22 0.21 0.16 0.14 0.17 0.23 0.27 0.30 0.31 0.35 0.37 0.31 0.31 0.33 0.32 0.25 0.30 0.39 0.48 0.43 0.41 0.42 0.38 0.39 0.44 0.44 0.46 0.52 0.53 0.64 0.66 0.64 0.65 0.69 0.72 0.77 0.84 0.90 0.96 1.02 1.07 1.12 1.14 1.14 1.12 1.12 1.18 1.23 1.25 1.29 1.34 1.36 1.41 1.46 1.45 1.45 1.52 1.60 1.53 1.46 1.50 1.52 1.54 1.54 1.51 1.56 1.62 1.62 1.53 1.38 1.42 1.53 1.59 1.53 1.53 1.51 1.60
0.36 0.36 0.32 0.24 0.22 0.19 0.19 0.19 0.19 0.19 0.20 0.19 0.17 0.16 0.18 0.20 0.24 0.27 0.28 0.31 0.28 0.31 0.35 0.33 0.28 0.37 0.41 0.42 0.40 0.35 0.33 0.35 0.44 0.48 0.52 0.49 0.51 0.52 0.57 0.69 0.65 0.64 0.66 0.72 0.80 0.87 0.90 0.97 1.06 1.10 1.09 1.12 1.13 1.11 1.10 1.13 1.18 1.23 1.29 1.33 1.39 1.42 1.45 1.49 1.52 1.51 1.63 1.72 1.69 1.74 1.69 1.68 1.71 1.75 1.77 1.75 1.64 1.42 1.33 1.38 1.42 1.50 1.51 1.42 1.42 1.48
0.36 0.37 0.36 0.32 0.26 0.23 0.24 0.27 0.29 0.29 0.26 0.20 0.18 0.16 0.17 0.18 0.19 0.23 0.27 0.27 0.26 0.30 0.32 0.35 0.34 0.37 0.37 0.36 0.41 0.36 0.35 0.35 0.35 0.40 0.42 0.45 0.58 0.57 0.62 0.64 0.62 0.65 0.67 0.71 0.80 0.91 0.99 1.05 1.06 1.05 1.07 1.08 1.10 1.11 1.12 1.13 1.15 1.20 1.26 1.30 1.35 1.43 1.46 1.52 1.58 1.64 1.61 1.61 1.66 1.74 1.70 1.68 1.62 1.66 1.81 1.87 1.85 1.46 1.20 1.27 1.29 1.33 1.38 1.33 1.28 1.28
0.40 0.33 0.35 0.34 0.32 0.30 0.31 0.31 0.31 0.30 0.26 0.25 0.21 0.17 0.17 0.18 0.18 0.18 0.19 0.20 0.27 0.30 0.31 0.34 0.36 0.36 0.37 0.38 0.38 0.38 0.37 0.36 0.36 0.37 0.40 0.42 0.46 0.55 0.60 0.63 0.62 0.65 0.67 0.71 0.80 0.87 0.89 0.97 1.02 1.03 1.05 1.07 1.10 1.13 1.14 1.15 1.17 1.18 1.22 1.25 1.32 1.39 1.45 1.53 1.60 1.62 1.59 1.63 1.68 1.74 1.62 1.59 1.61 1.64 1.66 1.69 1.82 1.56 1.22 1.17 1.17 1.25 1.26 1.32 1.26 1.22
0.44 0.35 0.39 0.39 0.36 0.34 0.33 0.33 0.33 0.31 0.30 0.28 0.26 0.22 0.18 0.17 0.18 0.17 0.15 0.17 0.21 0.25 0.25 0.32 0.37 0.35 0.37 0.40 0.40 0.39 0.39 0.37 0.35 0.36 0.38 0.42 0.45 0.48 0.66 0.66 0.60 0.60 0.65 0.64 0.75 0.85 0.92 0.95 0.95 0.98 1.02 1.05 1.08 1.08 1.09 1.13 1.18 1.22 1.26 1.30 1.34 1.38 1.43 1.54 1.59 1.60 1.63 1.72 1.78 1.76 1.70 1.64 1.65 1.72 1.70 1.76 1.93 1.69 1.40 1.18 1.09 1.12 1.21 1.25 1.15 1.16
0.52 0.45 0.45 0.43 0.39 0.39 0.37 0.35 0.34 0.31 0.30 0.30 0.28 0.28 0.25 0.24 0.22 0.19 0.18 0.19 0.19 0.20 0.24 0.29 0.37 0.38 0.37 0.38 0.37 0.37 0.38 0.36 0.34 0.36 0.38 0.38 0.41 0.49 0.64 0.61 0.60 0.63 0.65 0.63 0.70 0.82 0.84 0.87 0.94 0.99 1.03 1.04 1.05 1.05 1.06 1.10 1.15 1.19 1.20 1.24 1.30 1.34 1.43 1.52 1.57 1.62 1.67 1.73 1.72 1.75 1.78 1.79 1.79 1.74 1.68 1.67 1.77 1.64 1.37 1.23 1.13 1.10 1.07 1.08 1.08 1.10
0.54 0.47 0.49 0.47 0.44 0.42 0.44 0.44 0.40 0.34 0.30 0.28 0.29 0.27 0.26 0.23 0.21 0.21 0.20 0.19 0.19 0.18 0.18 0.21 0.25 0.31 0.38 0.38 0.36 0.38 0.37 0.38 0.35 0.31 0.36 0.37 0.42 0.47 0.54 0.56 0.57 0.59 0.61 0.65 0.67 0.80 0.84 0.86 0.90 0.96 0.99 1.01 1.02 1.05 1.07 1.11 1.16 1.21 1.23 1.27 1.32 1.36 1.44 1.52 1.57 1.64 1.67 1.73 1.70 1.75 1.77 1.78 1.79 1.80 1.78 1.75 1.78 1.71 1.53 1.42 1.27 1.11 1.09 1.06 1.06 1.07
0.52 0.46 0.53 0.51 0.42 0.40 0.44 0.41 0.42 0.40 0.35 0.30 0.28 0.27 0.26 0.24 0.21 0.21 0.21 0.22 0.20 0.18 0.19 0.19 0.20 0.21 0.29 0.38 0.36 0.34 0.35 0.34 0.30 0.31 0.36 0.38 0.43 0.47 0.52 0.51 0.54 0.59 0.62 0.67 0.69 0.76 0.84 0.82 0.86 0.90 0.92 0.95 1.01 1.08 1.13 1.15 1.19 1.21 1.23 1.30 1.34 1.41 1.50 1.53 1.58 1.62 1.65 1.76 1.66 1.60 1.57 1.58 1.60 1.61 1.64 1.66 1.63 1.65 1.66 1.60 1.44 1.26 1.19 1.14 1.10 1.10
0.53 0.49 0.48 0.48 0.40 0.39 0.44 0.42 0.39 0.38 0.38 0.32 0.27 0.27 0.27 0.26 0.25 0.24 0.23 0.23 0.24 0.23 0.21 0.19 0.17 0.19 0.25 0.29 0.25 0.25 0.28 0.29 0.28 0.31 0.34 0.41 0.50 0.54 0.55 0.55 0.59 0.70 0.75 0.78 0.81 0.82 0.85 0.85 0.89 0.93 0.97 1.04 1.11 1.15 1.18 1.22 1.21 1.20 1.27 1.34 1.41 1.48 1.49 1.52 1.57 1.61 1.63 1.65 1.62 1.61 1.60 1.56 1.55 1.58 1.57 1.57 1.63 1.65 1.62 1.53 1.46 1.36 1.29 1.25 1.21 1.19
0.57 0.52 0.47 0.51 0.40 0.40 0.45 0.42 0.41 0.36 0.29 0.29 0.33 0.31 0.27 0.24 0.24 0.22 0.21 0.23 0.25 0.26 0.24 0.25 0.26 0.30 0.29 0.25 0.22 0.26 0.29 0.27 0.27 0.33 0.39 0.46 0.46 0.48 0.51 0.53 0.57 0.71 0.79 0.82 0.85 0.84 0.91 0.94 0.97 0.99 1.03 1.09 1.16 1.21 1.28 1.31 1.30 1.35 1.42 1.43 1.46 1.44 1.47 1.46 1.50 1.55 1.57 1.58 1.57 1.59 1.62 1.61 1.58 1.51 1.49 1.49 1.49 1.51 1.51 1.51 1.45 1.40 1.34 1.31 1.29 1.25
0.55 0.55 0.49 0.52 0.43 0.41 0.46 0.45 0.38 0.31 0.31 0.38 0.37 0.35 0.31 0.27 0.26 0.25 0.24 0.24 0.25 0.27 0.28 0.29 0.33 0.35 0.34 0.36 0.42 0.38 0.39 0.54 0.49 0.44 0.39 0.43 0.44 0.45 0.48 0.52 0.61 0.65 0.71 0.81 0.90 0.90 0.90 0.91 0.94 0.99 1.05 1.06 1.12 1.21 1.26 1.28 1.34 1.43 1.45 1.46 1.42 1.42 1.42 1.43 1.46 1.50 1.53 1.53 1.56 1.58 1.58 1.55 1.48 1.42 1.40 1.43 1.43 1.43 1.45 1.46 1.47 1.44 1.40 1.33 1.27 1.25
0.54 0.51 0.50 0.49 0.47 0.49 0.44 0.41 0.31 0.30 0.41 0.42 0.41 0.43 0.38 0.33 0.30 0.27 0.25 0.26 0.26 0.26 0.26 0.24 0.27 0.28 0.33 0.37 0.39 0.47 0.48 0.41 0.40 0.40 0.41 0.43 0.45 0.46 0.49 0.53 0.62 0.66 0.70 0.80 0.87 0.96 0.95 0.92 0.91 0.94 1.00 1.10 1.15 1.17 1.23 1.27 1.37 1.38 1.40 1.43 1.34 1.32 1.33 1.33 1.35 1.37 1.39 1.37 1.36 1.37 1.41 1.39 1.38 1.40 1.45 1.45 1.43 1.41 1.41 1.43 1.44 1.41 1.41 1.38 1.38 1.38
0.52 0.54 0.53 0.45 0.50 0.39 0.41 0.41 0.38 0.46 0.42 0.43 0.43 0.41 0.41 0.37 0.34 0.29 0.23 0.25 0.29 0.29 0.28 0.28 0.30 0.28 0.28 0.30 0.44 0.40 0.38 0.37 0.33 0.35 0.43 0.44 0.48 0.52 0.55 0.60 0.70 0.72 0.76 0.85 0.90 0.95 0.98 0.98 0.99 1.03 1.05 1.10 1.15 1.16 1.18 1.23 1.26 1.24 1.23 1.22 1.17 1.17 1.20 1.21 1.21 1.23 1.27 1.27 1.28 1.31 1.35 1.39 1.41 1.42 1.45 1.44 1.45 1.43 1.44 1.44 1.44 1.45 1.49 1.44 1.41 1.39
0.56 0.45 0.49 0.43 0.46 0.49 0.39 0.37 0.39 0.38 0.33 0.40 0.51 0.69 0.65 0.59 0.56 0.55 0.42 0.29 0.33 0.34 0.34 0.30 0.30 0.32 0.30 0.41 0.44 0.40 0.38 0.32 0.27 0.29 0.50 0.56 0.57 0.56 0.59 0.66 0.71 0.78 0.82 0.88 0.99 1.04 0.99 1.00 1.03 1.08 1.16 1.18 1.12 1.09 1.07 1.10 1.13 1.09 1.07 1.07 1.12 1.15 1.18 1.20 1.20 1.26 1.28 1.28 1.30 1.32 1.38 1.42 1.43 1.43 1.48 1.50 1.49 1.49 1.51 1.52 1.51 1.51 1.53 1.45 1.42 1.38
0.55 0.51 0.50 0.42 0.40 0.43 0.40 0.36 0.37 0.35 0.41 0.67 0.69 0.68 0.67 0.63 0.57 0.55 0.37 0.28 0.34 0.41 0.39 0.43 0.35 0.33 0.37 0.43 0.42 0.40 0.33 0.26 0.27 0.34 0.65 0.64 0.62 0.62 0.62 0.66 0.71 0.78 0.83 0.88 0.89 0.92 0.96 1.00 1.06 1.08 1.17 1.22 1.07 1.09 1.10 1.08 1.06 1.06 1.06 1.09 1.15 1.19 1.18 1.21 1.25 1.28 1.27 1.30 1.34 1.37 1.44 1.45 1.45 1.48 1.52 1.54 1.58 1.56 1.52 1.50 1.52 1.55 1.56 1.54 1.51 1.47
0.49 0.47 0.42 0.36 0.37 0.41 0.41 0.38 0.40 0.48 0.49 0.72 0.79 0.74 0.74 0.70 0.63 0.47 0.28 0.24 0.34 0.42 0.46 0.43 0.39 0.41 0.41 0.42 0.44 0.39 0.32 0.27 0.29 0.56 0.68 0.73 0.72 0.75 0.75 0.74 0.78 0.80 0.84 0.94 0.97 1.02 1.06 1.09 1.10 1.12 1.10 1.04 1.03 1.09 1.13 1.12 1.11 1.10 1.10 1.13 1.16 1.16 1.17 1.22 1.29 1.33 1.33 1.34 1.38 1.42 1.45 1.46 1.47 1.49 1.51 1.53 1.55 1.57 1.54 1.55 1.55 1.55 1.54 1.54 1.51 1.45
0.40 0.40 0.38 0.31 0.35 0.39 0.39 0.40 0.47 0.50 0.71 0.78 0.76 0.77 0.73 0.71 0.63 0.40 0.27 0.27 0.59 0.56 0.51 0.44 0.44 0.46 0.44 0.44 0.46 0.39 0.48 0.60 0.67 0.73 0.79 0.78 0.81 0.82 0.87 0.89 0.88 0.92 0.94 0.99 1.01 1.04 1.05 1.08 1.06 1.00 1.00 1.08 1.13 1.17 1.21 1.21 1.16 1.11 1.13 1.15 1.15 1.12 1.17 1.25 1.31 1.31 1.31 1.35 1.37 1.40 1.42 1.47 1.47 1.48 1.53 1.60 1.60 1.56 1.55 1.56 1.56 1.54 1.51 1.45 1.40 1.35
0.40 0.37 0.34 0.35 0.32 0.33 0.38 0.37 0.42 0.51 0.69 0.79 0.82 0.76 0.79 0.61 0.40 0.34 0.66 0.74 0.75 0.70 0.62 0.54 0.48 0.50 0.50 0.50 0.50 0.67 0.66 0.74 0.76 0.77 0.79 0.84 0.84 0.88 0.92 0.98 1.00 1.03 1.09 1.09 1.08 1.02 0.97 0.97 1.00 1.01 1.04 1.10 1.17 1.21 1.25 1.24 1.17 1.14 1.14 1.13 1.10 1.14 1.21 1.24 1.26 1.31 1.36 1.37 1.40 1.46 1.50 1.49 1.54 1.59 1.59 1.60 1.60 1.53 1.53 1.55 1.53 1.46 1.39 1.33 1.27 1.23
0.40 0.37 0.31 0.28 0.34 0.38 0.40 0.38 0.40 0.36 0.68 0.87 0.83 0.76 0.80 0.54 0.63 0.79 0.81 0.84 0.79 0.78 0.76 0.71 0.67 0.63 0.65 0.64 0.71 0.73 0.76 0.78 0.81 0.85 0.89 0.91 0.91 0.90 0.92 0.94 0.94 0.92 0.92 0.91 0.92 0.97 0.96 0.96 0.99 1.00 1.04 1.12 1.18 1.22 1.23 1.20 1.12 1.12 1.13 1.11 1.14 1.22 1.23 1.22 1.28 1.32 1.35 1.40 1.43 1.47 1.49 1.53 1.56 1.57 1.57 1.54 1.56 1.54 1.48 1.47 1.42 1.37 1.31 1.23 1.19 1.17
0.51 0.34 0.34 0.36 0.37 0.25 0.29 0.31 0.35 0.55 0.72 0.90 0.83 0.67 0.83 0.85 0.91 0.91 0.85 0.81 0.93 0.97 0.94 0.86 0.82 0.78 0.73 0.71 0.72 0.73 0.76 0.77 0.83 0.90 0.87 0.83 0.82 0.85 0.88 0.88 0.86 0.86 0.86 0.89 0.91 0.95 0.99 0.98 1.01 1.07 1.16 1.22 1.24 1.28 1.28 1.22 1.15 1.15 1.18 1.18 1.30 1.33 1.33 1.33 1.34 1.39 1.37 1.38 1.41 1.47 1.52 1.55 1.58 1.59 1.58 1.56 1.55 1.51 1.45 1.39 1.34 1.30 1.23 1.18 1.14 1.12
0.52 0.36 0.41 0.34 0.44 0.33 0.33 0.40 0.59 0.68 0.77 0.88 0.91 0.89 0.89 0.94 0.95 0.92 0.92 0.88 0.87 0.90 0.97 0.91 0.85 0.86 0.86 0.82 0.77 0.75 0.76 0.83 0.85 0.89 0.86 0.85 0.87 0.91 0.91 0.88 0.88 0.87 0.87 0.88 0.89 0.92 0.94 0.97 1.01 1.04 1.07 1.14 1.21 1.32 1.39 1.36 1.20 1.16 1.20 1.30 1.40 1.41 1.41 1.44 1.44 1.42 1.38 1.40 1.45 1.51 1.56 1.62 1.65 1.65 1.59 1.54 1.49 1.42 1.37 1.29 1.27 1.22 1.19 1.12 1.09 1.07
0.62 0.60 0.61 0.50 0.46 0.56 0.58 0.61 0.69 0.71 0.79 0.91 0.96 0.97 0.94 0.95 0.99 0.99 0.95 0.91 0.93 0.98 0.99 0.91 0.86 0.85 0.89 0.89 0.78 0.78 0.81 0.88 0.92 0.93 0.91 0.89 0.89 0.93 0.96 1.00 1.03 0.97 0.93 0.93 0.99 1.02 0.97 0.99 1.02 1.03 1.06 1.12 1.18 1.19 1.25 1.27 1.26 1.19 1.23 1.31 1.34 1.47 1.57 1.53 1.46 1.41 1.41 1.46 1.48 1.49 1.54 1.57 1.61 1.59 1.51 1.45 1.41 1.38 1.36 1.31 1.27 1.22 1.16 1.11 1.07 1.02
0.67 0.60 0.52 0.43 0.52 0.41 0.39 0.61 0.64 0.72 0.86 0.97 0.97 0.98 1.00 1.00 0.99 1.00 0.96 0.95 0.94 0.93 0.92 0.95 0.96 0.93 0.92 0.96 0.92 0.86 0.86 0.91 0.90 0.92 0.94 0.95 0.96 0.99 0.99 0.98 0.98 1.01 1.00 0.97 1.03 1.08 1.01 0.98 0.99 1.03 1.06 1.09 1.16 1.21 1.24 1.25 1.28 1.30 1.39 1.40 1.45 1.54 1.59 1.52 1.46 1.43 1.44 1.47 1.51 1.52 1.52 1.49 1.46 1.44 1.42 1.40 1.39 1.39 1.38 1.38 1.32 1.26 1.21 1.18 1.17 1.18
0.50 0.64 0.54 0.50 0.47 0.45 0.52 0.63 0.70 0.86 0.94 1.01 1.02 0.97 0.95 0.95 0.94 0.95 0.95 0.95 0.93 0.94 0.95 0.97 1.00 0.98 0.99 0.95 0.96 0.94 0.92 0.92 0.90 0.92 0.95 1.00 1.03 1.03 1.04 1.06 1.06 1.06 1.08 1.08 1.08 1.12 1.09 1.04 1.02 1.06 1.10 1.13 1.20 1.26 1.29 1.31 1.34 1.39 1.42 1.46 1.51 1.55 1.53 1.46 1.41 1.41 1.44 1.48 1.51 1.51 1.49 1.44 1.40 1.38 1.36 1.37 1.37 1.36 1.35 1.37 1.35 1.28 1.23 1.19 1.17 1.14
0.66 0.66 0.48 0.50 0.48 0.64 0.67 0.68 0.77 0.85 0.88 0.98 1.00 1.00 1.01 1.00 0.96 0.97 0.97 0.95 0.94 0.92 0.92 0.93 0.94 0.92 0.91 0.90 0.92 0.90 0.89 0.94 0.93 0.93 0.94 1.02 1.05 1.08 1.08 1.08 1.09 1.10 1.12 1.07 1.09 1.11 1.08 1.08 1.06 1.08 1.11 1.15 1.24 1.28 1.31 1.33 1.37 1.43 1.47 1.53 1.55 1.55 1.47 1.44 1.44 1.47 1.48 1.48 1.48 1.46 1.46 1.41 1.38 1.35 1.32 1.32 1.35 1.39 1.39 1.39 1.36 1.33 1.31 1.36 1.33 1.27
0.69 0.55 0.67 0.55 0.50 0.50 0.52 0.61 0.74 0.69 0.71 0.85 0.91 0.96 0.97 1.00 0.95 0.91 0.93 0.94 0.92 0.89 0.90 0.89 0.89 0.91 0.89 0.89 0.87 0.88 0.87 0.88 0.88 0.89 0.92 0.97 1.02 1.06 1.09 1.11 1.11 1.09 1.11 1.14 1.13 1.13 1.13 1.12 1.11 1.10 1.12 1.18 1.25 1.27 1.29 1.32 1.36 1.42 1.47 1.48 1.50 1.51 1.45 1.43 1.43 1.45 1.45 1.46 1.44 1.40 1.38 1.35 1.31 1.30 1.30 1.30 1.30 1.29 1.29 1.31 1.32 1.32 1.28 1.23 1.22 1.21
0.66 0.67 0.67 0.60 0.53 0.55 0.69 0.78 0.87 0.86 0.87 0.93 0.95 0.99 1.03 1.06 1.02 0.96 0.94 0.93 0.94 0.95 0.94 0.90 0.88 0.89 0.91 0.92 0.93 0.91 0.90 0.89 0.90 0.90 0.90 0.93 0.96 1.01 1.05 1.06 1.06 1.08 1.11 1.17 1.14 1.13 1.14 1.15 1.17 1.15 1.15 1.20 1.25 1.25 1.27 1.30 1.34 1.37 1.42 1.43 1.45 1.47 1.46 1.46 1.42 1.40 1.40 1.38 1.34 1.34 1.32 1.29 1.26 1.28 1.28 1.28 1.27 1.25 1.22 1.19 1.20 1.19 1.15 1.12 1.12 1.11
Wind_Speed
25 23 23 23 23 24 25 24 23 21 20 18 18 17 17 15 15 16 16 15 16 15 14 15 14 14 13 12 11 12 12 12 13 14 14 14 15 15 16 16 16 17 16 16 16 17 17 17 17 16 15 15 15 15 15 15 14 14 14 14 13 13 13 12 12 11 11 11 10 10 10 10 10 9 9 9 9 9 9 9 9 10 10 10 10 10
26 26 25 25 24 24 25 25 24 23 21 19 18 18 17 16 15 15 16 16 16 15 14 15 15 14 14 12 12 13 13 13 13 13 14 15 15 15 16 16 16 16 16 16 16 17 17 18 18 17 16 16 16 16 16 15 15 15 15 14 14 14 13 13 13 12 11 11 10 10 10 10 10 9 9 9 9 9 9 9 9 10 10 10 10 10
27 27 26 26 25 24 24 25 25 25 23 20 18 18 17 17 15 15 17 16 16 15 14 15 15 14 15 14 14 14 14 13 13 14 14 15 15 15 16 16 17 17 16 16 16 17 18 18 18 17 17 17 16 16 16 16 16 15 15 15 14 15 14 14 13 13 12 12 11 10 10 9 9 9 9 9 9 9 9 9 9 10 10 10 10 10
27 28 28 27 26 26 25 25 26 25 23 21 20 19 18 18 16 16 18 18 17 16 14 14 15 14 14 15 16 16 15 14 14 14 14 15 16 16 17 17 17 18 17 17 17 17 17 18 18 18 18 17 17 17 17 17 16 16 15 15 15 15 14 14 14 13 13 12 12 11 10 10 9 9 9 9 10 10 10 9 10 10 10 10 10 10
28 26 28 29 28 27 26 25 26 24 23 23 22 21 19 18 18 17 18 18 19 18 15 15 14 14 15 16 16 16 16 16 16 15 15 15 16 16 17 18 18 18 18 18 18 18 18 19 19 19 18 18 18 18 18 17 17 16 16 16 15 15 15 15 14 14 14 13 12 12 11 10 10 11 10 10 10 10 10 10 10 10 10 10 10 10
30 27 27 30 29 28 28 27 26 25 23 23 24 24 21 19 18 19 20 19 19 19 17 17 16 15 17 18 18 16 16 17 17 16 16 16 16 17 17 18 19 19 19 19 19 19 19 19 19 20 19 19 19 19 18 18 17 17 16 16 16 15 15 15 15 15 14 13 13 12 11 11 11 11 11 10 10 9 9 9 9 9 9 9 10 10
31 29 27 30 31 30 30 28 27 27 24 22 23 24 24 22 19 19 21 20 19 19 18 19 18 16 17 18 19 18 17 18 18 18 18 17 17 18 18 18 19 20 20 19 19 20 20 20 20 20 20 20 20 19 19 18 18 18 17 17 16 16 16 16 16 15 14 13 13 13 12 12 12 12 11 10 9 9 9 9 9 9 9 9 9 9
32 32 29 30 31 31 31 29 28 28 26 23 22 23 25 25 22 19 20 21 20 19 18 20 20 18 18 17 18 19 19 18 19 19 19 19 19 19 19 19 19 20 20 20 20 20 20 20 20 20 20 20 20 20 19 19 19 19 18 18 17 17 17 17 16 16 15 14 13 13 13 13 12 12 10 9 9 9 9 9 8 8 8 8 8 8
31 34 31 30 31 31 31 30 29 28 27 24 21 21 24 26 24 22 20 21 20 20 20 21 21 19 19 18 17 19 20 19 19 19 20 20 21 21 20 20 20 20 20 20 20 21 21 20 20 20 20 20 21 20 19 19 19 19 19 19 18 17 17 17 17 16 15 14 14 13 13 13 12 11 10 10 9 10 9 9 8 8 8 8 8 8
28 34 34 32 32 32 31 31 30 29 28 25 21 19 21 24 24 23 22 21 21 23 23 23 22 20 19 19 19 19 20 19 19 18 19 20 21 21 21 21 21 20 20 20 20 20 20 20 20 20 20 21 21 21 20 20 20 19 20 19 19 18 17 16 16 16 16 15 14 14 13 13 12 11 10 10 10 9 9 9 8 8 8 8 8 9
25 30 34 33 33 33 31 31 32 31 29 26 23 21 21 22 23 23 22 21 21 23 23 23 23 20 19 19 19 20 20 19 18 18 19 19 20 21 21 21 22 21 21 20 21 21 21 20 20 20 20 20 21 21 21 21 20 20 20 20 19 18 17 17 17 16 16 16 15 14 14 13 13 12 11 11 10 10 9 9 9 9 8 8 9 9
26 27 31 33 34 34 32 32 32 31 31 28 25 24 22 21 22 22 22 22 22 22 22 25 25 23 21 20 19 18 19 21 20 18 19 19 19 20 21 21 22 22 22 21 21 21 21 20 20 20 20 20 20 21 22 22 21 21 21 20 20 19 18 17 17 17 16 16 15 15 15 14 13 13 12 11 11 10 10 9 9 9 9 9 9 9
28 27 29 31 34 36 34 32 32 31 32 31 28 26 25 22 22 23 23 23 23 22 22 24 26 25 22 21 21 19 18 20 20 19 19 19 19 20 21 21 21 21 22 22 21 21 21 21 20 20 20 20 20 21 22 22 22 22 21 21 21 20 19 18 18 18 17 16 16 16 15 14 14 14 13 12 12 11 11 10 10 9 9 9 9 9
27 28 30 31 32 36 37 34 33 32 34 34 31 29 27 24 23 23 23 22 23 24 24 23 23 23 22 20 23 22 20 20 20 19 20 19 18 19 20 20 21 21 21 22 22 22 22 22 21 21 21 20 20 20 21 22 22 22 21 22 21 21 20 19 19 18 18 17 17 16 16 15 14 14 14 13 13 12 11 11 11 10 10 9 10 10
25 27 31 34 31 34 39 38 34 32 34 35 33 31 30 28 25 23 22 22 22 22 23 24 23 22 21 19 20 22 22 22 21 20 19 19 17 18 19 20 21 21 22 22 22 22 23 23 22 21 21 20 20 21 21 22 23 22 21 22 22 21 21 20 19 18 18 17 17 17 16 15 15 14 14 14 13 13 13 12 11 11 11 11 11 11
25 25 28 33 32 33 37 39 37 33 33 34 34 33 33 31 27 24 23 23 23 22 22 23 23 22 21 19 18 19 18 19 20 19 19 18 17 17 18 20 20 20 21 21 21 22 23 23 22 22 22 21 21 21 21 21 22 23 22 22 22 22 21 21 20 19 18 17 17 17 17 16 15 15 15 15 14 14 13 13 12 12 12 12 12 12
24 23 24 30 34 35 35 37 39 36 32 32 35 37 34 31 29 27 25 23 22 22 22 21 21 21 22 22 22 22 20 19 19 18 18 18 17 17 17 18 20 20 19 20 20 21 22 22 22 23 23 22 22 21 22 21 22 23 23 23 23 22 22 21 20 19 18 18 18 18 18 17 17 17 16 16 16 15 15 14 13 13 13 14 13 13
22 22 23 28 32 35 34 35 39 40 35 31 34 37 34 31 31 29 27 25 24 23 22 22 21 20 20 20 21 23 24 23 22 20 19 19 18 18 17 18 19 20 19 19 19 20 21 22 23 23 23 23 22 22 22 22 22 22 23 23 23 23 22 22 21 20 19 19 19 18 18 19 18 18 18 18 17 17 16 16 15 15 15 15 15 15
21 22 23 27 30 32 32 33 35 40 41 36 32 33 34 32 32 31 28 25 25 24 22 23 23 20 20 19 18 20 22 22 21 20 19 18 18 18 18 18 19 20 19 19 19 20 21 22 23 23 23 23 22 22 22 22 22 22 22 23 23 23 23 22 21 20 20 19 19 19 19 19 19 19 19 19 19 18 18 18 17 17 16 16 16 17
20 21 21 24 28 30 31 33 34 36 41 41 35 33 34 34 33 33 31 27 25 24 23 24 24 21 20 20 20 20 20 19 19 18 18 17 16 17 18 18 19 19 19 19 20 20 21 23 24 24 24 23 22 22 22 22 22 23 22 22 23 23 23 23 22 21 20 20 19 19 20 20 20 20 20 19 20 20 20 19 19 18 18 18 19 18
19 21 21 21 25 29 31 34 37 36 37 40 40 37 35 35 33 33 33 32 29 26 22 22 23 21 19 20 23 24 22 21 20 19 18 17 17 18 18 19 18 18 19 19 19 21 22 23 24 25 24 24 22 22 22 22 22 22 22 22 23 23 23 22 22 21 20 20 19 20 20 21 20 20 20 20 21 21 21 21 20 20 20 20 20 20
20 21 22 21 22 27 31 33 37 38 37 37 39 40 38 35 33 33 34 33 32 31 27 24 23 21 18 16 20 23 23 23 22 21 20 20 19 18 18 19 19 19 19 19 19 20 21 23 24 25 24 24 23 22 23 23 22 22 22 22 22 23 23 22 21 21 20 19 19 20 20 21 21 21 21 21 21 21 21 22 22 21 21 22 22 22
21 20 22 22 22 24 28 31 33 37 39 38 37 39 40 38 36 35 34 32 32 32 31 29 26 24 20 15 16 20 22 22 22 21 20 20 20 19 17 17 19 18 18 19 20 20 21 22 23 24 24 24 23 23 23 23 23 22 22 22 22 22 23 22 21 20 20 20 20 20 21 21 21 21 21 21 21 20 21 22 22 22 23 23 23 22
23 21 22 23 22 22 25 28 30 33 37 39 38 38 40 41 40 39 35 33 33 33 31 30 29 26 22 16 15 16 18 20 20 20 20 20 19 19 17 17 18 18 18 18 20 21 21 23 23 23 23 23 22 23 24 24 23 22 21 21 22 22 22 22 21 20 21 22 22 21 22 22 22 22 22 21 20 19 20 21 21 22 23 24 24 23
24 23 23 23 22 22 23 25 28 31 33 35 38 39 40 42 43 42 39 36 36 37 35 32 31 28 24 20 18 18 17 17 17 18 21 21 20 19 19 18 18 18 17 18 19 21 22 23 23 23 23 22 22 23 24 24 24 22 21 22 22 21 21 21 21 21 21 22 23 23 22 22 22 22 22 21 20 20 20 19 19 21 23 25 26 26
24 24 24 25 24 23 24 25 27 30 31 33 36 40 42 43 44 42 39 38 39 39 38 36 33 30 29 28 26 25 23 21 19 17 18 19 19 20 19 18 17 17 16 17 18 20 21 22 22 23 23 22 23 23 24 24 24 23 22 22 22 21 21 21 21 21 21 22 23 23 22 22 22 23 24 23 23 23 22 20 19 20 23 25 26 26
22 24 26 28 27 26 25 25 26 28 30 32 36 40 42 43 44 42 39 40 41 39 38 40 36 33 33 31 29 27 26 25 25 22 18 18 18 18 19 18 18 17 17 17 17 18 20 21 22 23 23 23 23 23 23 24 24 24 23 24 23 22 21 21 21 21 22 22 23 23 23 22 23 24 25 26 27 27 26 24 22 23 24 24 24 24
23 25 27 29 30 30 27 26 27 29 31 32 34 38 40 42 43 44 44 43 41 38 38 39 39 38 37 33 29 27 24 23 25 25 24 21 20 20 20 20 20 18 17 18 18 19 21 22 23 23 23 23 23 23 23 23 23 24 24 24 24 23 23 22 21 22 22 23 22 22 22 23 23 23 23 25 27 28 27 26 26 26 25 24 24 24
24 26 27 28 30 31 31 30 29 30 31 31 32 35 38 40 42 44 46 45 43 41 40 37 37 41 42 38 34 30 26 23 24 25 26 26 25 23 21 20 21 20 19 19 20 22 22 22 23 23 23 23 23 23 23 23 23 23 23 24 24 24 24 23 22 22 22 22 21 21 21 21 21 21 21 22 23 25 26 28 27 26 26 26 26 25
25 25 26 27 28 30 31 31 32 33 33 33 34 35 36 38 41 43 44 45 45 45 44 40 38 40 40 40 39 36 33 30 27 26 27 28 27 26 23 21 21 22 21 21 22 24 24 24 23 23 23 23 23 23 23 23 23 23 23 23 24 24 23 23 22 21 20 20 20 21 21 21 22 24 23 23 23 25 27 28 27 26 27 27 26 25
25 24 24 25 26 28 31 32 32 34 35 35 36 37 37 38 39 41 42 42 43 45 46 45 44 41 37 36 37 37 36 34 33 31 29 28 28 28 25 23 23 22 22 23 24 25 26 26 25 24 23 24 24 24 24 24 23 23 23 23 23 23 23 22 21 20 19 19 19 20 21 22 24 25 25 24 24 25 26 27 27 27 27 26 25 25
25 24 23 23 24 25 27 30 32 33 34 36 37 37 38 38 38 39 39 39 41 42 43 44 45 43 38 36 36 36 35 35 35 33 31 30 30 29 26 23 23 22 22 22 24 25 27 27 26 25 25 25 25 25 24 24 24 24 23 22 21 21 21 21 20 20 20 19 19 20 21 22 23 24 25 25 24 25 25 26 27 27 27 27 26 26
26 25 23 22 23 22 22 25 28 29 31 33 35 36 37 38 38 39 39 39 39 39 39 40 42 40 37 36 37 37 36 36 36 35 33 31 28 26 25 23 22 22 21 21 22 24 27 27 26 25 24 24 24 24 24 24 23 23 22 21 20 20 20 20 19 19 19 19 20 21 21 22 22 23 24 24 25 25 25 25 26 26 27 27 27 27
26 26 24 22 22 22 21 21 22 24 26 27 29 32 36 38 38 39 40 40 39 38 36 36 36 35 35 36 36 35 34 33 34 33 32 30 27 26 26 25 24 23 22 21 22 23 26 27 26 25 25 24 24 24 23 23 22 22 21 21 20 20 20 19 19 18 18 19 20 21 22 22 23 23 24 24 25 24 24 24 25 26 26 27 27 27
26 26 24 23 22 22 21 20 21 22 24 24 24 28 33 35 37 39 39 40 40 40 39 38 35 33 33 32 32 32 30 28 28 29 29 30 29 28 27 26 25 25 24 22 22 23 25 26 26 25 25 25 24 23 23 22 22 21 21 21 21 21 20 20 19 19 20 21 22 22 22 22 23 23 23 24 24 24 24 25 25 25 26 27 27 27
27 26 25 23 22 22 21 22 22 21 22 23 24 25 28 31 34 36 38 39 39 39 39 39 38 35 33 32 30 29 27 25 26 28 29 30 30 29 28 27 26 26 25 24 24 24 24 25 25 26 27 26 25 24 23 22 22 22 21 21 21 21 21 20 21 21 22 23 23 23 23 23 23 23 23 23 24 24 24 25 25 25 25 25 26 27
29 28 26 24 23 22 22 22 22 21 22 24 23 22 23 26 28 31 34 36 37 38 38 38 37 37 36 34 31 28 27 26 26 28 30 30 30 30 29 27 26 26 25 24 24 25 25 26 26 27 27 26 26 25 23 23 22 22 21 21 21 21 21 21 22 23 24 24 24 24 23 23 23 23 23 23 24 24 24 24 24 24 24 25 26 27
30 28 27 26 24 22 21 21 21 21 21 20 19 18 19 22 24 26 30 33 33 35 37 37 37 37 35 33 31 29 27 27 27 28 29 29 29 29 29 28 27 26 25 25 24 25 26 27 27 27 27 27 26 25 24 23 22 21 21 22 22 22 22 22 22 23 24 25 24 23 23 23 23 23 23 23 24 24 24 24 24 24 24 25 26 27
30 28 27 27 26 24 23 22 20 21 19 15 15 17 18 20 22 23 29 33 32 33 34 35 37 37 35 32 31 29 28 29 28 27 26 26 27 28 28 28 28 27 26 26 26 25 26 26 26 26 27 27 26 25 24 23 22 22 22 23 23 23 23 23 23 23 24 24 23 23 22 22 23 23 23 24 24 24 24 24 25 25 25 26 28 28
29 28 27 28 28 26 25 23 21 21 19 15 15 17 17 18 19 23 27 29 29 31 33 33 34 34 33 31 30 30 30 29 27 25 25 25 25 26 26 27 27 27 26 26 26 25 25 25 25 25 26 26 24 24 24 23 23 23 23 24 24 24 24 23 23 23 22 22 22 22 22 22 22 23 24 24 24 24 24 25 26 26 27 28 28 27
29 28 28 29 28 27 26 25 23 21 19 17 17 18 18 18 19 24 25 23 23 26 29 30 32 32 31 31 31 30 28 27 25 24 24 24 24 24 25 25 26 25 25 25 25 24 24 24 24 24 25 24 23 23 23 23 23 24 24 24 24 24 23 23 22 22 22 21 21 21 22 23 24 25 25 25 25 24 25 26 27 27 28 27 25 23
28 28 28 28 28 27 27 26 25 22 18 17 18 18 18 19 20 22 22 20 21 22 24 27 30 30 30 30 29 27 26 25 24 24 24 24 24 24 24 24 23 23 23 23 23 22 22 22 22 23 23 24 23 23 23 24 24 24 24 24 24 23 23 23 22 22 21 21 21 22 23 25 26 25 25 25 26 26 26 27 27 26 25 24 23 22
28 26 27 28 27 26 26 25 25 23 18 16 17 17 17 18 19 19 19 19 19 19 20 23 26 27 27 26 25 25 24 23 23 23 22 22 22 22 22 22 21 21 21 21 21 20 21 21 22 22 23 23 23 24 24 24 23 23 23 24 24 24 23 23 23 22 22 22 23 24 24 25 26 26 26 26 26 27 27 27 26 24 23 23 22 21
27 27 25 25 25 25 26 25 24 22 19 17 18 18 18 18 18 18 17 17 16 16 18 19 21 22 23 24 24 24 23 22 21 21 21 21 21 21 20 21 21 21 21 20 20 20 20 21 21 22 22 22 22 23 23 23 23 23 24 24 24 24 24 23 23 23 23 24 24 24 25 26 26 26 26 26 27 27 26 24 23 23 22 21 20 19
26 26 24 23 23 23 23 23 21 20 19 18 18 19 19 18 17 16 16 15 15 15 16 17 18 20 21 23 24 23 22 21 20 20 20 20 20 20 20 20 21 21 20 20 20 20 20 21 21 21 20 20 21 21 21 22 22 23 23 23 23 24 24 23 23 23 24 24 25 25 26 26 27 27 27 26 25 24 23 22 21 21 20 19 18 17
21 23 22 22 22 21 20 20 19 18 17 17 16 16 16 16 15 14 13 14 14 15 15 16 17 18 19 21 22 21 20 20 19 19 19 19 19 19 19 19 19 19 19 19 19 19 19 20 20 20 20 20 20 20 20 21 21 22 23 23 23 24 25 24 23 23 23 24 24 25 25 25 26 26 25 24 22 21 21 20 20 19 18 17 17 18
19 19 20 21 21 20 20 19 18 16 15 15 14 13 13 12 12 12 13 13 14 14 14 15 16 17 18 18 20 20 20 19 19 18 18 18 18 19 19 19 18 18 18 18 18 18 18 19 19 19 19 19 19 19 20 20 21 22 22 22 23 23 24 23 23 23 23 24 24 24 24 24 24 23 22 21 20 20 20 19 19 19 18 18 18 19
19 19 19 19 19 18 18 17 15 14 14 13 12 12 12 12 12 12 13 13 13 14 14 15 16 16 17 18 18 18 18 18 18 18 17 17 17 18 18 18 18 18 18 18 18 18 18 18 18 18 19 19 19 19 20 20 20 20 21 21 22 23 23 23 23 24 24 24 24 24 23 22 22 21 20 20 20 19 19 20 19 19 18 18 19 19
19 19 18 18 17 16 17 17 15 14 14 13 12 12 12 12 12 13 13 13 14 15 15 15 16 16 16 16 16 17 17 17 17 17 17 16 16 16 17 18 17 17 17 17 18 18 18 18 18 19 19 19 19 19 19 19 19 20 20 21 21 22 23 23 23 24 24 23 23 22 22 21 21 21 20 20 20 20 20 20 19 19 19 19 19 19
18 18 17 18 18 17 18 19 19 17 16 15 13 12 12 13 14 14 13 13 14 16 17 17 16 15 15 14 14 15 15 15 15 16 16 15 15 15 16 16 17 17 17 17 18 18 19 19 20 20 21 20 19 19 19 19 19 20 20 21 22 22 23 23 23 23 22 22 21 21 21 21 21 21 21 21 21 21 21 20 20 20 20 20 21 21
18 17 17 16 16 15 17 19 19 18 18 17 15 14 14 14 15 16 15 14 14 15 16 17 16 15 15 15 14 14 14 14 14 15 15 15 15 15 15 16 16 16 17 18 18 19 20 20 21 21 20 19 19 19 19 19 20 20 21 21 22 22 22 22 22 22 21 20 20 20 20 20 20 20 20 21 21 21 21 21 20 20 21 21 21 21
Wind_Direction
210 212 213 213 213 212 212 213 214 214 213 213 212 213 214 215 211 205 201 198 198 202 203 204 208 211 209 202 198 196 192 194 199 201 202 202 200 199 198 199 200 201 204 204 202 202 202 203 205 206 209 211 213 215 216 217 217 217 216 216 217 217 216 218 219 219 220 221 222 224 225 226 231 234 236 238 240 242 247 250 251 254 257 261 264 267
212 216 215 213 214 214 215 215 216 217 218 218 217 215 215 218 215 202 199 199 201 206 205 205 211 214 213 208 203 204 201 200 202 203 206 207 206 205 203 203 202 203 205 205 205 206 206 207 208 209 211 213 214 217 219 220 220 220 219 220 220 218 218 220 220 220 221 221 221 224 228 228 232 235 236 240 242 243 245 249 255 257 257 261 264 266
216 218 216 213 214 217 218 218 218 218 218 218 219 219 218 217 215 206 203 203 204 209 207 205 213 217 217 217 213 210 209 208 208 209 211 211 210 210 208 208 206 206 207 206 207 210 211 212 213 214 216 217 218 219 221 222 222 221 222 223 221 220 221 221 221 221 221 223 223 226 231 229 230 237 240 242 244 246 245 249 258 258 256 259 261 263
219 219 216 213 214 216 219 218 217 218 219 219 219 220 220 218 215 208 206 206 207 213 214 210 214 221 221 220 218 216 216 215 214 215 216 215 215 214 212 212 211 211 211 210 210 213 216 217 218 219 221 222 222 222 223 223 222 222 223 223 222 221 222 222 222 221 221 224 225 226 230 230 234 241 244 246 248 247 249 255 258 258 257 257 258 263
222 220 216 214 215 215 216 216 216 218 220 221 221 219 219 220 216 210 207 209 212 215 215 213 220 227 225 223 221 220 221 221 219 218 218 218 218 218 216 216 216 216 215 215 215 217 219 219 221 222 223 224 224 224 224 224 223 222 223 222 221 221 222 222 222 221 222 224 225 226 230 234 239 242 244 249 250 248 251 256 255 255 256 255 258 263
224 220 215 215 216 215 216 217 218 218 220 221 221 219 221 222 219 214 212 212 216 219 216 218 227 232 230 229 226 221 222 222 220 219 219 219 219 219 219 219 219 220 220 219 219 221 222 222 223 223 223 224 224 224 225 225 224 223 222 220 220 220 222 223 222 220 222 224 226 228 231 235 238 241 244 249 249 248 250 252 252 255 257 257 261 265
223 219 215 216 216 215 216 219 218 218 221 222 220 219 222 225 224 220 215 213 219 223 220 221 228 234 235 234 228 223 225 224 221 221 221 220 219 219 221 221 222 223 223 223 223 224 224 223 224 224 224 224 224 224 225 225 224 222 221 219 218 220 222 224 223 221 222 224 227 229 233 238 240 244 247 246 245 246 250 253 255 259 260 261 265 266
221 218 216 216 217 217 217 218 216 217 221 222 221 221 222 222 224 222 216 217 223 226 224 223 227 235 239 234 226 223 225 225 224 224 224 224 222 221 222 223 223 224 225 225 224 225 225 224 224 224 224 224 224 224 224 224 223 222 221 220 220 221 224 224 223 222 222 224 228 230 236 239 241 244 245 243 243 246 250 254 258 261 264 266 268 269
220 219 217 215 216 218 218 218 215 216 220 221 222 224 222 220 222 222 221 222 225 227 227 224 225 233 238 233 226 223 223 226 229 228 228 227 225 224 224 224 224 224 225 226 225 225 225 225 224 224 223 223 223 223 222 222 222 222 222 222 221 222 223 222 222 223 223 225 228 230 235 236 237 239 240 242 246 247 248 251 256 261 265 269 271 271
223 222 220 217 218 219 219 218 215 216 218 219 222 223 220 219 221 223 225 227 227 228 228 223 221 227 235 233 227 226 226 228 233 234 231 228 226 226 225 225 225 224 224 225 225 224 225 225 224 224 223 221 221 221 220 221 221 222 222 222 222 221 222 221 221 223 224 225 228 230 232 232 233 236 239 243 245 244 246 249 254 259 264 268 270 271
227 224 221 220 220 219 219 218 217 217 217 218 220 219 219 221 222 224 226 227 230 230 227 224 223 225 233 233 227 228 230 232 234 235 233 229 228 228 226 225 224 223 223 223 224 224 224 224 223 222 222 221 221 220 219 220 220 220 221 222 222 222 221 221 222 224 225 226 228 230 232 232 234 237 239 241 241 241 244 248 252 257 262 266 268 270
228 224 222 221 219 218 218 217 217 216 215 216 219 219 220 220 220 224 225 225 230 231 226 229 230 229 233 235 233 231 231 234 237 237 236 232 229 228 226 225 224 223 223 222 223 224 223 222 220 220 220 220 220 220 220 219 219 219 220 221 222 223 222 223 223 225 226 228 230 231 232 233 236 238 239 239 239 241 243 246 252 256 260 264 266 269
229 227 223 221 219 217 217 216 216 215 214 215 218 218 219 218 218 222 223 223 227 230 229 230 232 232 234 236 237 236 232 233 236 236 235 234 233 230 225 223 223 222 222 221 222 223 222 221 220 219 219 219 219 220 220 220 219 219 220 220 222 223 223 224 225 226 227 229 231 231 232 234 236 238 239 238 239 242 245 247 252 256 260 264 267 268
228 228 223 220 219 217 217 216 215 214 214 214 214 215 217 219 219 221 223 225 229 231 231 230 232 234 236 237 238 239 237 235 236 235 235 238 239 234 226 221 220 219 219 221 221 221 222 222 221 221 221 220 220 220 220 220 220 220 221 221 223 223 223 224 226 227 228 229 230 231 232 234 236 237 237 238 239 242 245 248 252 257 261 264 268 270
227 228 224 221 220 217 217 218 217 215 215 215 214 216 220 221 222 224 225 228 232 233 231 228 230 234 235 237 236 238 239 237 236 235 235 238 239 235 229 222 218 218 218 219 220 220 221 221 222 222 222 222 222 221 221 222 221 221 221 222 223 223 223 225 227 228 229 230 229 231 233 235 236 237 237 238 240 242 246 250 254 259 262 266 270 273
231 234 226 222 221 218 217 219 217 216 216 216 215 218 221 221 223 229 231 233 236 237 232 227 231 236 237 238 235 235 236 231 229 230 231 233 232 229 228 223 220 220 219 219 219 218 218 219 221 222 222 222 223 223 223 223 223 222 222 222 223 223 224 226 228 228 230 231 231 233 235 236 238 239 239 240 242 244 248 253 257 261 264 268 272 275
233 236 227 220 221 220 219 218 216 216 217 216 215 218 221 221 225 230 232 235 237 236 232 228 233 238 236 238 236 234 233 228 226 227 230 233 229 225 225 223 222 222 220 219 218 216 215 217 220 222 223 224 223 223 223 223 223 223 222 223 223 224 225 227 228 230 232 233 233 235 236 237 239 240 241 243 245 246 250 255 259 263 266 269 273 276
235 237 229 221 221 220 219 218 217 219 219 217 217 218 219 221 226 229 231 231 231 233 233 229 232 234 232 234 234 230 231 230 228 229 233 233 229 226 225 220 220 221 219 218 218 216 216 218 221 223 224 224 224 223 223 224 224 223 223 224 225 226 227 228 229 231 233 234 235 237 238 239 241 242 243 246 247 248 251 255 259 263 267 270 273 276
235 238 232 222 221 218 217 217 218 219 220 220 221 218 216 219 222 224 227 228 228 231 234 232 233 234 231 230 227 223 223 225 225 227 231 230 226 226 224 219 219 220 220 221 220 218 217 219 221 222 224 225 224 224 224 223 224 224 224 225 226 228 228 228 230 232 234 235 238 241 241 242 243 244 245 247 249 250 252 255 258 262 265 269 273 275
233 236 234 223 220 218 217 218 218 217 218 220 223 220 218 221 222 222 225 228 230 232 233 234 235 233 231 232 229 223 220 220 222 225 229 229 225 223 221 221 221 221 221 223 224 222 221 221 221 221 223 225 225 225 224 223 224 224 225 225 226 227 227 227 229 231 233 235 239 242 242 244 245 245 245 247 249 251 253 256 259 262 265 268 272 275
232 233 234 226 219 218 218 219 219 217 215 217 220 220 219 220 222 224 226 227 230 233 233 234 235 232 231 233 231 228 226 225 226 231 233 233 232 229 225 223 221 220 221 223 224 225 224 223 221 221 222 224 225 226 224 223 223 224 224 224 224 225 225 225 227 230 233 235 238 241 244 246 247 247 248 249 250 252 254 258 261 263 266 268 272 274
231 230 231 227 221 221 221 220 220 220 219 218 219 220 220 219 220 223 225 226 228 231 232 235 237 233 230 228 225 227 229 227 229 233 234 234 236 236 230 224 220 219 221 223 225 225 224 224 223 221 220 222 224 225 224 223 223 223 224 223 223 223 223 224 226 228 232 234 237 241 245 248 249 250 251 251 252 253 255 259 261 263 266 268 270 273
229 230 229 228 227 226 224 222 221 221 222 222 222 222 222 222 221 223 224 225 226 229 232 235 238 234 230 224 220 223 225 225 229 234 234 234 235 235 231 224 221 221 224 227 228 228 226 225 224 221 220 221 223 222 222 223 223 223 223 222 221 221 221 223 225 228 232 234 238 242 246 250 252 251 251 252 253 254 255 259 262 263 268 270 271 273
225 229 229 229 231 230 226 224 223 221 221 223 224 223 222 223 224 225 227 227 228 229 229 232 235 231 224 219 217 217 217 222 230 235 235 234 234 233 230 226 226 227 230 233 232 231 229 225 222 221 221 222 223 221 220 222 223 223 223 222 221 220 221 222 225 229 234 237 240 244 249 253 254 252 253 253 252 253 256 261 263 266 271 274 273 274
222 226 226 227 230 228 225 223 220 219 220 223 224 223 223 224 224 226 228 228 230 230 228 231 233 228 223 220 219 219 218 225 234 237 235 234 236 237 234 230 230 231 233 235 234 232 230 225 222 221 221 223 224 222 220 220 222 221 221 220 220 221 221 223 227 231 236 240 243 248 253 256 256 255 254 252 251 251 256 261 267 273 279 279 275 274
222 225 224 225 227 226 224 223 220 220 221 224 225 225 225 224 224 225 226 228 230 230 228 232 234 231 230 228 228 229 230 234 239 240 237 234 235 237 233 229 231 234 237 237 235 232 228 224 221 219 220 223 224 222 220 221 221 220 220 220 220 222 223 226 231 234 238 243 246 250 254 257 259 258 254 253 253 253 256 261 268 280 288 287 280 276
227 228 226 227 229 229 229 228 226 225 225 225 225 226 227 226 225 226 227 229 231 230 231 234 235 235 233 229 229 230 230 233 236 237 240 239 237 233 229 230 235 239 241 239 235 229 223 219 217 217 220 223 223 222 221 221 221 220 222 222 222 224 227 230 233 236 240 244 248 251 253 256 260 260 257 257 256 254 255 260 267 280 290 293 288 283
231 231 227 228 232 233 234 232 230 229 229 228 227 226 227 227 227 228 229 230 230 231 234 234 234 236 235 230 229 227 224 230 235 236 239 242 243 239 234 233 237 239 239 237 233 226 219 216 216 218 221 223 223 223 222 221 221 222 224 226 227 229 231 233 236 238 242 246 249 252 254 257 260 260 261 262 258 253 254 259 267 277 284 290 292 288
232 232 230 231 234 235 235 235 234 233 232 231 230 228 227 227 228 229 231 232 231 233 236 234 232 235 235 233 232 229 228 233 237 238 239 241 244 245 237 231 234 236 235 234 231 224 219 219 218 219 221 223 222 222 220 220 222 224 226 227 229 232 234 236 239 241 244 247 249 253 257 259 260 261 266 268 262 257 257 262 269 275 279 285 291 291
231 233 232 233 237 238 237 237 237 236 235 234 233 232 230 229 229 231 232 233 233 235 237 237 236 236 236 234 234 235 237 240 241 242 241 241 244 244 238 233 235 235 233 233 231 225 222 221 219 220 221 222 221 221 220 222 224 226 227 228 230 233 236 237 238 241 244 247 250 254 258 260 262 264 267 270 268 263 261 264 269 273 277 281 287 291
230 232 230 233 238 239 238 238 238 238 237 235 234 233 233 232 231 231 232 232 234 236 237 237 239 239 237 236 236 236 238 241 242 241 241 241 241 241 239 237 237 234 231 231 229 225 223 221 220 221 222 222 221 221 221 223 225 226 227 229 231 233 235 236 237 241 244 248 251 254 258 262 264 264 266 268 267 265 263 264 267 271 275 279 283 288
228 230 229 232 237 239 238 236 237 238 238 237 235 232 232 232 232 232 232 231 232 234 235 236 239 240 238 237 237 237 237 238 240 239 240 240 239 239 239 239 238 236 232 228 226 224 222 220 220 223 223 221 221 222 223 225 226 227 228 229 231 232 233 235 238 241 243 246 250 254 259 263 263 263 265 265 265 266 265 265 266 269 273 277 281 285
227 228 228 231 235 238 239 237 236 238 238 236 234 232 231 232 232 233 233 232 232 232 233 235 237 238 238 237 237 236 236 237 238 237 238 238 237 237 238 239 239 237 232 227 225 223 221 220 221 223 222 220 220 222 224 225 227 229 230 230 231 231 232 235 238 240 242 245 251 256 260 262 262 262 265 266 268 269 268 267 267 269 272 277 280 282
226 227 228 231 235 238 240 240 239 238 237 236 235 233 232 232 233 233 233 233 232 232 234 236 237 237 237 235 234 234 234 236 236 236 235 236 236 236 237 238 237 233 230 229 227 224 220 219 221 222 220 219 221 222 224 225 228 230 230 230 231 231 233 235 237 240 243 248 255 260 262 263 263 264 266 268 270 270 269 270 271 271 273 276 280 281
225 226 229 232 235 237 238 239 238 237 238 239 239 237 235 234 234 236 236 234 232 232 234 235 237 236 235 233 231 231 232 233 234 234 233 233 234 235 236 236 232 227 227 229 226 222 219 218 219 220 219 219 221 222 223 225 227 228 229 230 231 231 233 236 239 243 247 252 258 263 264 265 265 265 267 268 270 270 270 273 274 274 275 278 281 282
226 226 228 230 233 236 237 236 238 242 243 242 242 241 237 235 234 235 236 234 232 232 232 233 234 234 235 235 233 230 230 230 232 233 232 232 233 232 233 234 230 226 226 227 225 222 220 218 218 219 219 220 221 222 222 222 224 226 227 229 230 232 235 240 245 249 252 256 261 264 265 266 265 266 267 269 270 271 272 274 277 278 278 280 283 284
225 226 227 229 231 234 236 238 242 248 248 243 241 240 238 236 236 236 236 235 234 233 232 232 231 232 234 235 232 229 229 231 234 232 230 230 230 229 229 231 230 226 225 227 226 223 220 219 219 220 220 219 219 220 220 220 222 225 227 229 231 234 238 243 249 254 257 260 264 265 265 265 265 265 267 269 271 272 273 275 277 279 281 282 284 285
223 226 226 227 229 232 237 241 242 245 245 241 239 241 242 242 243 241 239 237 235 232 232 231 231 231 231 231 230 228 228 232 236 233 227 227 228 227 227 228 228 225 224 225 226 223 220 220 220 219 219 218 218 219 219 220 222 226 230 233 235 237 242 247 251 255 260 263 265 265 264 264 264 265 267 270 272 273 275 276 276 278 281 284 285 286
219 224 226 227 230 231 235 238 238 239 242 241 243 247 248 247 246 241 238 237 235 231 231 231 230 229 228 227 227 226 228 232 234 231 226 225 226 225 225 226 225 224 223 224 224 222 220 220 220 220 219 218 217 217 219 222 224 229 233 236 237 239 244 249 253 256 261 264 264 264 264 264 264 265 268 272 274 275 276 276 276 278 281 283 286 286
217 221 224 227 228 229 231 235 236 236 240 245 252 255 253 250 245 237 235 237 234 230 228 229 228 227 225 225 225 225 228 231 232 228 225 225 224 224 224 223 222 222 222 222 221 219 218 219 219 219 218 216 216 217 221 224 228 233 236 237 238 241 245 250 253 257 261 263 262 263 263 264 266 268 270 273 274 276 277 277 277 278 281 284 286 285
216 220 224 226 227 228 230 233 236 237 240 248 259 260 255 250 240 232 234 238 236 232 229 227 226 224 223 223 225 226 228 230 229 226 224 222 221 221 221 220 220 220 219 217 216 216 216 216 216 215 216 216 218 220 222 226 231 234 236 238 240 243 246 250 254 257 258 260 261 262 263 265 268 271 273 274 275 277 277 277 278 280 281 283 284 283
215 218 223 225 226 228 229 231 236 238 240 251 262 260 250 242 236 233 237 240 237 234 231 226 223 222 220 221 222 223 224 224 223 222 221 219 217 216 216 216 216 216 213 212 213 214 215 215 214 215 217 219 221 223 225 228 230 232 235 238 241 244 247 250 253 254 256 259 262 264 266 268 269 271 274 275 276 276 277 277 278 278 278 279 281 280
213 215 220 223 223 226 228 230 233 234 239 254 262 254 243 237 236 236 238 237 233 229 225 221 218 215 214 214 215 215 216 217 218 218 216 214 211 211 212 212 211 210 208 208 210 212 213 214 214 215 217 220 223 225 227 227 229 232 236 239 242 245 247 249 251 252 255 260 264 267 269 269 269 271 274 275 275 275 276 276 275 274 275 277 278 277
213 215 219 220 221 225 227 228 230 234 241 253 255 249 244 240 237 237 235 229 223 220 216 213 211 208 206 206 206 208 209 211 213 212 208 206 204 204 205 204 202 203 204 206 207 208 210 213 215 216 219 223 225 227 229 232 235 239 241 244 247 248 247 249 251 254 257 261 264 268 271 270 271 273 274 274 274 275 274 271 270 271 274 275 274 273
213 217 221 222 223 228 230 229 229 233 240 248 249 247 244 237 233 232 228 218 214 212 209 205 203 202 201 202 202 203 205 206 207 205 202 200 201 201 202 202 202 203 205 206 208 209 210 212 215 217 220 224 227 229 233 237 240 242 244 247 252 251 249 250 253 255 258 263 266 269 272 272 272 273 274 274 273 271 268 267 268 271 273 271 270 270
212 216 221 222 223 227 228 228 228 231 238 244 242 237 232 228 225 223 216 210 208 206 203 201 197 195 195 197 196 197 199 199 198 197 197 197 198 199 200 202 204 205 206 206 207 209 211 212 214 216 218 222 226 231 236 239 243 247 248 251 255 254 251 252 256 258 262 267 269 270 272 273 272 273 273 272 269 266 265 266 269 271 270 269 268 269
212 218 219 218 221 224 224 225 227 229 233 235 227 217 212 210 207 203 198 196 195 193 192 190 187 185 185 186 186 187 188 188 187 189 191 192 193 194 195 197 201 203 204 205 207 209 211 213 215 217 219 223 229 236 242 246 250 253 253 253 255 253 251 254 260 263 267 271 272 271 272 273 271 271 270 267 265 264 265 267 269 269 267 267 268 269
215 223 219 213 216 220 219 219 217 215 218 217 208 200 199 196 192 187 183 181 180 179 177 175 174 176 177 178 179 180 181 182 184 185 186 189 192 194 195 197 200 203 205 207 209 211 213 214 217 220 224 229 236 243 248 251 252 253 253 254 254 254 254 258 263 266 269 273 274 272 272 270 267 267 267 264 263 264 266 268 269 268 267 269 270 271
216 219 216 210 212 216 215 210 204 199 204 208 203 197 195 193 190 186 179 173 171 168 166 166 167 170 173 175 177 178 179 184 187 185 185 190 195 197 198 200 203 205 207 209 213 216 217 219 222 226 230 236 243 247 249 250 251 252 253 255 257 258 259 261 265 269 271 272 272 271 268 265 263 264 264 263 263 265 267 269 270 269 270 272 273 274
212 211 212 211 214 215 212 207 202 197 196 198 197 195 194 190 185 181 177 175 173 168 166 165 166 169 172 175 177 178 182 188 191 190 191 195 199 202 204 205 208 211 212 214 217 221 223 224 227 231 234 238 243 246 248 250 251 253 256 258 261 262 262 263 268 272 271 271 271 268 264 262 262 263 263 264 264 265 266 269 271 271 271 272 274 276
211 212 213 213 215 212 204 202 200 196 193 193 190 188 188 188 184 178 176 177 177 174 172 172 174 177 180 183 184 185 188 192 195 196 197 201 207 210 211 214 217 219 220 222 224 228 231 233 234 235 236 238 243 247 250 252 253 255 258 262 264 265 265 266 269 270 269 269 267 263 261 261 263 263 263 265 265 265 265 267 269 270 271 273 274 276